Location: Wheeling
(40.0640°N, 80.7210°W)
Time: 13:47:59
(UTC-05:00)

CUTE 1.7 + AOD 2 - Pass Details

Date: 01 November 2021
Orbit: 592 x 610 km, 97.6° (Epoch: 30 November)

Event Time Altitude Azimuth Distance (km) Brightness Sun altitude
Rises 05:30:00 0° 13° (NNE) 2,878 ? -27.7°
Reaches altitude 10° 05:32:12 10° 14° (NNE) 1,968 ? -27.3°
Enters shadow 05:34:40 34° 19° (NNE) 1,012 ? -26.8°
